Radiation Dose at Monitoring Post of Fukushima Daini Nuclear Power Station
Date,Time,MP-1(microSv/h),MP-2(microSv/h),MP-3(microSv/h),MP-4(microSv/h),MP-5(microSv/h),MP-6(microSv/h),MP-7(microSv/h),Wind Direction,Wind Velocity(m/s),Rain
2015/04/25,00:00,0.538,0.329,0.564,0.528,0.559,0.250,0.223,north-northwest,2.9,No
2015/04/25,00:10,0.540,0.330,0.568,0.529,0.554,0.252,0.224,north,2.5,No
2015/04/25,00:20,0.540,0.328,0.565,0.527,0.557,0.251,0.224,north-northwest,3.3,No
2015/04/25,00:30,0.541,0.329,0.569,0.530,0.553,0.252,0.224,north-northwest,3.4,No
2015/04/25,00:40,0.539,0.328,0.566,0.529,0.559,0.251,0.223,north,5.1,No
2015/04/25,00:50,0.541,0.329,0.568,0.530,0.555,0.251,0.225,north,4.5,No
2015/04/25,01:00,0.540,0.329,0.567,0.529,0.560,0.252,0.224,north,5.2,No
2015/04/25,01:10,0.539,0.329,0.568,0.528,0.555,0.252,0.224,north,5.2,No
2015/04/25,01:20,0.540,0.330,0.568,0.530,0.560,0.251,0.224,north,5.0,No
2015/04/25,01:30,0.542,0.328,0.568,0.528,0.555,0.251,0.224,north,5.5,No
2015/04/25,01:40,0.539,0.331,0.567,0.531,0.560,0.251,0.225,north-northwest,6.8,No
2015/04/25,01:50,0.541,0.329,0.569,0.527,0.555,0.251,0.224,north-northwest,6.4,No
2015/04/25,02:00,0.540,0.330,0.566,0.532,0.559,0.251,0.224,north-northwest,6.2,No
2015/04/25,02:10,0.542,0.329,0.570,0.527,0.556,0.251,0.224,north,5.9,No
2015/04/25,02:20,0.540,0.331,0.568,0.532,0.556,0.252,0.223,north,5.8,No
2015/04/25,02:30,0.540,0.329,0.568,0.528,0.556,0.252,0.224,north,6.2,No
2015/04/25,02:40,0.539,0.329,0.570,0.531,0.556,0.251,0.224,north-northwest,5.6,No
2015/04/25,02:50,0.542,0.329,0.566,0.528,0.559,0.251,0.223,north,6.0,No
2015/04/25,03:00,0.541,0.329,0.569,0.527,0.553,0.251,0.224,north,3.9,No
2015/04/25,03:10,0.540,0.328,0.566,0.530,0.560,0.253,0.223,north,3.9,No
2015/04/25,03:20,0.539,0.328,0.567,0.529,0.554,0.252,0.223,north,3.7,No
2015/04/25,03:30,0.540,0.330,0.568,0.531,0.560,0.252,0.224,north,3.4,No
2015/04/25,03:40,0.538,0.330,0.570,0.527,0.553,0.252,0.222,north,3.3,No
2015/04/25,03:50,0.542,0.330,0.565,0.530,0.559,0.250,0.223,north,2.7,No
2015/04/25,04:00,0.540,0.329,0.571,0.528,0.554,0.251,0.224,north,1.9,No
2015/04/25,04:10,0.543,0.330,0.566,0.530,0.557,0.251,0.224,north-northeast,2.5,No
2015/04/25,04:20,0.539,0.328,0.569,0.527,0.556,0.251,0.224,north-northeast,2.4,No
2015/04/25,04:30,0.544,0.330,0.566,0.529,0.556,0.251,0.225,north-northeast,3.5,No
2015/04/25,04:40,0.539,0.329,0.569,0.530,0.558,0.251,0.224,north-northeast,3.3,No
2015/04/25,04:50,0.542,0.329,0.570,0.527,0.555,0.251,0.225,north-northeast,5.0,No
2015/04/25,05:00,0.541,0.331,0.567,0.532,0.559,0.251,0.224,north-northeast,4.3,No
2015/04/25,05:10,0.542,0.330,0.571,0.528,0.558,0.251,0.225,north-northeast,4.2,No
2015/04/25,05:20,0.542,0.329,0.566,0.532,0.555,0.251,0.225,north-northeast,4.2,No
2015/04/25,05:30,0.538,0.331,0.571,0.529,0.555,0.252,0.223,north-northeast,4.6,No
2015/04/25,05:40,0.543,0.329,0.569,0.530,0.555,0.252,0.224,north-northeast,4.2,No
2015/04/25,05:50,0.540,0.331,0.568,0.529,0.557,0.252,0.224,north-northeast,3.8,No
2015/04/25,06:00,0.542,0.330,0.569,0.527,0.556,0.251,0.224,north-northeast,3.1,No
2015/04/25,06:10,0.539,0.329,0.566,0.531,0.556,0.252,0.223,north-northeast,3.1,No
2015/04/25,06:20,0.543,0.331,0.569,0.528,0.555,0.251,0.223,north,2.2,No
2015/04/25,06:30,0.542,0.328,0.566,0.531,0.558,0.251,0.224,north-northeast,2.6,No
2015/04/25,06:40,0.539,0.330,0.570,0.527,0.558,0.252,0.223,north,3.3,No
2015/04/25,06:50,0.543,0.328,0.565,0.528,0.554,0.252,0.224,north-northeast,5.3,No
2015/04/25,07:00,0.539,0.329,0.568,0.531,0.558,0.251,0.224,north-northeast,5.9,No
2015/04/25,07:10,0.543,0.330,0.567,0.527,0.554,0.251,0.224,north,5.6,No
2015/04/25,07:20,0.539,0.329,0.569,0.530,0.557,0.252,0.223,north,5.3,No
2015/04/25,07:30,0.539,0.328,0.566,0.528,0.555,0.250,0.224,north-northeast,6.5,No
2015/04/25,07:40,0.541,0.330,0.567,0.525,0.557,0.251,0.224,north,6.2,No
2015/04/25,07:50,0.539,0.328,0.566,0.528,0.556,0.251,0.223,north,4.7,No
2015/04/25,08:00,0.540,0.328,0.569,0.522,0.557,0.251,0.223,north-northeast,4.5,No
2015/04/25,08:10,0.539,0.326,0.567,0.527,0.555,0.251,0.221,north-northeast,4.2,No
2015/04/25,08:20,0.541,0.328,0.568,0.526,0.555,0.251,0.224,north-northeast,4.4,No
2015/04/25,08:30,0.538,0.327,0.568,0.524,0.554,0.250,0.223,northeast,6.2,No
2015/04/25,08:40,0.539,0.329,0.568,0.529,0.557,0.251,0.223,northeast,5.8,No
2015/04/25,08:50,0.541,0.329,0.567,0.525,0.550,0.250,0.223,northeast,5.5,No
2015/04/25,09:00,0.535,0.327,0.569,0.526,0.558,0.250,0.224,north-northeast,5.3,No
2015/04/25,09:10,0.541,0.330,0.569,0.529,0.552,0.252,0.223,northeast,7.1,No
2015/04/25,09:20,0.535,0.326,0.567,0.524,0.559,0.249,0.223,northeast,6.6,No
2015/04/25,09:30,0.542,0.330,0.570,0.526,0.553,0.251,0.224,north-northeast,5.8,No
2015/04/25,09:40,0.538,0.327,0.566,0.529,0.559,0.250,0.223,north-northeast,6.2,No
2015/04/25,09:50,0.541,0.330,0.567,0.525,0.555,0.250,0.223,north-northeast,6.7,No
2015/04/25,10:00,0.539,0.328,0.567,0.531,0.555,0.251,0.224,north-northeast,3.3,No
2015/04/25,10:10,0.538,0.327,0.568,0.530,0.558,0.249,0.223,northeast,5.4,No
2015/04/25,10:20,0.543,0.331,0.567,0.524,0.553,0.251,0.224,northeast,6.1,No
2015/04/25,10:30,0.536,0.326,0.564,0.527,0.559,0.250,0.224,north-northeast,3.9,No
2015/04/25,10:40,0.540,0.330,0.571,0.530,0.557,0.250,0.223,north-northeast,4.7,No
2015/04/25,10:50,0.538,0.327,0.565,0.525,0.555,0.251,0.224,north-northeast,4.1,No
2015/04/25,11:00,0.539,0.329,0.565,0.529,0.559,0.250,0.223,north-northeast,2.8,No
2015/04/25,11:10,0.542,0.330,0.570,0.531,0.554,0.251,0.225,northeast,3.1,No
2015/04/25,11:20,0.535,0.327,0.566,0.528,0.559,0.251,0.224,north-northeast,3.9,No
2015/04/25,11:30,0.542,0.329,0.565,0.528,0.555,0.249,0.224,north-northeast,3.7,No
2015/04/25,11:40,0.539,0.327,0.568,0.532,0.554,0.252,0.225,northeast,2.8,No
2015/04/25,11:50,0.539,0.329,0.564,0.527,0.559,0.251,0.224,northeast,3.1,No
2015/04/25,12:00,0.543,0.330,0.564,0.526,0.556,0.251,0.224,north-northeast,2.9,No
2015/04/25,12:10,0.538,0.329,0.572,0.532,0.552,0.251,0.224,northeast,2.8,No
2015/04/25,12:20,0.541,0.331,0.567,0.531,0.561,0.250,0.225,northeast,2.1,No
2015/04/25,12:30,0.540,0.330,0.561,0.527,0.556,0.250,0.226,east-northeast,2.2,No
2015/04/25,12:40,0.538,0.328,0.571,0.534,0.550,0.252,0.224,northeast,2.3,No
2015/04/25,12:50,0.547,0.331,0.569,0.531,0.559,0.251,0.225,east-northeast,1.8,No
2015/04/25,13:00,0.540,0.328,0.566,0.525,0.555,0.251,0.226,east-northeast,2.2,No
2015/04/25,13:10,0.542,0.331,0.568,0.531,0.552,0.251,0.224,east-southeast,1.6,No
2015/04/25,13:20,0.542,0.331,0.570,0.532,0.558,0.250,0.227,east-southeast,1.8,No
2015/04/25,13:30,0.540,0.328,0.567,0.525,0.556,0.251,0.225,east,2.0,No
2015/04/25,13:40,0.545,0.332,0.562,0.529,0.550,0.251,0.223,east-southeast,1.6,No
2015/04/25,13:50,0.539,0.329,0.569,0.531,0.557,0.252,0.226,east,2.5,No
2015/04/25,14:00,0.546,0.329,0.571,0.527,0.561,0.251,0.225,east,2.2,No
2015/04/25,14:10,0.542,0.331,0.567,0.530,0.555,0.251,0.222,east-southeast,2.3,No
2015/04/25,14:20,0.537,0.328,0.565,0.533,0.550,0.251,0.225,southeast,2.2,No
2015/04/25,14:30,0.543,0.330,0.573,0.528,0.559,0.252,0.225,east-southeast,2.7,No
2015/04/25,14:40,0.540,0.331,0.573,0.527,0.560,0.252,0.224,east-southeast,2.6,No
2015/04/25,14:50,0.540,0.329,0.566,0.535,0.553,0.252,0.226,southeast,2.2,No
2015/04/25,15:00,0.544,0.331,0.568,0.528,0.553,0.252,0.226,south-southeast,0.8,No
2015/04/25,15:10,0.539,0.330,0.575,0.537,0.563,0.251,0.225,southeast,2.1,No
2015/04/25,15:20,0.545,0.330,0.569,0.529,0.559,0.252,0.225,south-southeast,1.9,No
2015/04/25,15:30,0.541,0.332,0.571,0.535,0.552,0.252,0.225,south,1.7,No
2015/04/25,15:40,0.541,0.331,0.575,0.531,0.559,0.251,0.225,south,1.9,No
2015/04/25,15:50,0.544,0.332,0.571,0.535,0.562,0.251,0.226,south-southeast,1.8,No
2015/04/25,16:00,0.540,0.329,0.577,0.531,0.557,0.253,0.225,south-southeast,2.1,No
2015/04/25,16:10,0.546,0.334,0.569,0.535,0.552,0.251,0.224,south-southeast,2.2,No
2015/04/25,16:20,0.540,0.331,0.576,0.528,0.562,0.252,0.225,south-southeast,3.3,No
2015/04/25,16:30,0.546,0.332,0.570,0.535,0.556,0.251,0.226,southeast,3.3,No
2015/04/25,16:40,0.542,0.330,0.576,0.530,0.553,0.252,0.225,southeast,2.5,No
2015/04/25,16:50,0.545,0.333,0.571,0.534,0.562,0.251,0.224,south,0.8,No
2015/04/25,17:00,0.543,0.329,0.575,0.531,0.560,0.252,0.227,south-southeast,1.9,No
2015/04/25,17:10,0.542,0.331,0.570,0.534,0.555,0.253,0.225,south,1.1,No
2015/04/25,17:20,0.543,0.329,0.574,0.531,0.563,0.252,0.225,south-southeast,1.7,No
2015/04/25,17:30,0.543,0.333,0.571,0.534,0.556,0.252,0.225,south-southeast,1.5,No
2015/04/25,17:40,0.544,0.330,0.574,0.533,0.562,0.252,0.225,south,1.9,No
2015/04/25,17:50,0.543,0.332,0.570,0.534,0.558,0.254,0.225,south,3.2,No
2015/04/25,18:00,0.542,0.330,0.572,0.532,0.560,0.252,0.226,south,4.2,No
2015/04/25,18:10,0.546,0.331,0.572,0.532,0.558,0.251,0.224,south,3.9,No
2015/04/25,18:20,0.541,0.332,0.573,0.533,0.562,0.252,0.226,south,2.6,No
2015/04/25,18:30,0.545,0.329,0.570,0.530,0.559,0.251,0.225,south,2.8,No
2015/04/25,18:40,0.541,0.331,0.572,0.533,0.563,0.252,0.226,south,3.3,No
2015/04/25,18:50,0.545,0.332,0.573,0.532,0.559,0.252,0.227,south,1.3,No
2015/04/25,19:00,0.543,0.331,0.569,0.532,0.557,0.252,0.225,south,1.6,No
2015/04/25,19:10,0.544,0.332,0.572,0.533,0.562,0.253,0.225,south,1.6,No
2015/04/25,19:20,0.543,0.331,0.571,0.533,0.557,0.253,0.226,south,3.6,No
2015/04/25,19:30,0.541,0.330,0.574,0.535,0.558,0.253,0.226,south,4.0,No
2015/04/25,19:40,0.544,0.333,0.574,0.532,0.558,0.251,0.226,south,3.5,No
2015/04/25,19:50,0.542,0.329,0.571,0.534,0.557,0.254,0.226,south,3.1,No
2015/04/25,20:00,0.545,0.330,0.576,0.534,0.558,0.252,0.226,south,3.1,No
2015/04/25,20:10,0.543,0.332,0.572,0.531,0.557,0.253,0.226,south-southwest,3.8,No
2015/04/25,20:20,0.543,0.332,0.571,0.534,0.557,0.252,0.227,south,2.5,No
2015/04/25,20:30,0.546,0.331,0.575,0.534,0.559,0.253,0.225,south,2.2,No
2015/04/25,20:40,0.544,0.332,0.572,0.531,0.555,0.252,0.227,south,1.7,No
2015/04/25,20:50,0.545,0.331,0.573,0.533,0.558,0.252,0.225,south,1.8,No
2015/04/25,21:00,0.544,0.331,0.574,0.533,0.558,0.253,0.227,south,2.4,No
2015/04/25,21:10,0.541,0.332,0.571,0.531,0.555,0.252,0.227,south,1.8,No
2015/04/25,21:20,0.544,0.331,0.575,0.535,0.558,0.253,0.226,south-southwest,2.5,No
2015/04/25,21:30,0.541,0.330,0.572,0.533,0.556,0.252,0.227,south-southwest,3.3,No
2015/04/25,21:40,0.543,0.332,0.572,0.530,0.556,0.253,0.226,south-southwest,3.1,No
2015/04/25,21:50,0.545,0.330,0.574,0.534,0.558,0.253,0.227,south,3.0,No
2015/04/25,22:00,0.542,0.330,0.573,0.530,0.555,0.252,0.225,south-southwest,3.9,No
2015/04/25,22:10,0.543,0.331,0.571,0.531,0.557,0.252,0.227,south-southwest,4.2,No
2015/04/25,22:20,0.545,0.331,0.575,0.532,0.557,0.253,0.226,south-southwest,4.6,No
2015/04/25,22:30,0.541,0.331,0.573,0.533,0.554,0.253,0.227,south,4.7,No
2015/04/25,22:40,0.544,0.330,0.572,0.531,0.557,0.254,0.227,south,4.4,No
2015/04/25,22:50,0.543,0.333,0.574,0.533,0.557,0.251,0.226,south,3.5,No
2015/04/25,23:00,0.543,0.332,0.573,0.534,0.555,0.252,0.227,south,3.3,No
2015/04/25,23:10,0.545,0.330,0.573,0.530,0.556,0.253,0.226,south,3.3,No
2015/04/25,23:20,0.544,0.333,0.573,0.534,0.558,0.253,0.227,south,3.3,No
2015/04/25,23:30,0.542,0.331,0.572,0.532,0.558,0.253,0.227,south,2.5,No
2015/04/25,23:40,0.545,0.331,0.570,0.530,0.557,0.252,0.225,south-southwest,3.0,No
2015/04/25,23:50,0.542,0.332,0.573,0.533,0.557,0.253,0.227,south,2.7,No
